Regional Weather Roundup
Issued by NWS

Home | Current Version | Previous Version | Text Only | Print | Product List | Glossary Off
Versions: 1 2 3 4 5 6 7 8 9 10 11 12 13 14 15 16 17 18 19 20 21 22 23 24 25 26 27

000
ASUS45 KPSR 160610
RWRAZ

ARIZONA HOURLY REGIONAL WEATHER ROUNDUP
NATIONAL WEATHER SERVICE PHOENIX AZ
1100 PM MST SUN OCT 15 2017

NOTE: FAIR INDICATES FEW OR NO CLOUDS BELOW 12,000 FEET WITH NO
SIGNIFICANT WEATHER AND/OR OBSTRUCTIONS TO VISIBILITY.

AZZ001>003-036-160700-
NORTHWEST ARIZONA

CITY           SKY/WX    TMP DP  RH WIND       PRES   REMARKS
KINGMAN        CLEAR     51  14  22 E7        30.28F
6HR MIN TEMP:  50; 6HR MAX TEMP:  78;

$$

AZZ004>008-015-016-018-160700-
NORTH CENTRAL ARIZONA

CITY           SKY/WX    TMP DP  RH WIND       PRES   REMARKS
GRAND CANYON   PTCLDY    30  -6  21 NE6       30.48S WCI  24
6HR MIN TEMP:  29; 6HR MAX TEMP:  61;

WILLIAMS       CLEAR     48   0  13 S13       30.47S
PRESCOTT       CLEAR     50  19  29 SW6       30.36R
6HR MIN TEMP:  48; 6HR MAX TEMP:  79;

FLAGSTAFF      PTCLDY    31   0  26 CALM      30.50F
6HR MIN TEMP:  30; 6HR MAX TEMP:  62;

PAYSON           N/A     63   5  10 E5        30.38S
PAGE           PTCLDY    48  16  27 CALM      30.41S
6HR MIN TEMP:  48; 6HR MAX TEMP:  66;

$$

AZZ009>014-017-160700-
NORTHEAST ARIZONA

CITY           SKY/WX    TMP DP  RH WIND       PRES   REMARKS
WINSLOW        PTCLDY    39  -3  17 CALM      30.43S
6HR MIN TEMP:  38; 6HR MAX TEMP:  69;

SAINT JOHNS    CLEAR     48   8  19 S7        30.44S
6HR MIN TEMP:  44; 6HR MAX TEMP:  71;

WINDOW ROCK    CLEAR     32  -3  22 CALM      30.52S
6HR MIN TEMP:  30; 6HR MAX TEMP:  64;

SHOW LOW       CLEAR     43   9  24 CALM      30.50R
$$

AZZ540-542>544-546-548-160700-
GREATER PHOENIX AREA

CITY           SKY/WX    TMP DP  RH WIND       PRES   REMARKS
PHOENIX        CLEAR     80  23  12 CALM      30.05R
6HR MIN TEMP:  78; 6HR MAX TEMP:  95;

BUCKEYE        CLEAR     75  12   9 N12       30.06S
LUKE AFB       CLEAR     74  23  15 CALM      30.05R
6HR MIN TEMP:  74; 6HR MAX TEMP:  93;

DEER VALLEY    CLEAR     76  15  10 NE8       30.08R
6HR MIN TEMP:  75; 6HR MAX TEMP:  93;

SCOTTSDALE     CLEAR     73  28  18 CALM      30.09R
6HR MIN TEMP:  73; 6HR MAX TEMP:  95;

MESA-GATEWAY   PTCLDY    70  27  19 SE7       30.09R
$$

AZZ539-553-160700-
SOUTHWEST MARICOPA COUNTY AND PINAL COUNTY

CITY           SKY/WX    TMP DP  RH WIND       PRES   REMARKS
CASA GRANDE    NOT AVBL
$$

AZZ503-504-507>509-160700-
SOUTHEAST ARIZONA

CITY           SKY/WX    TMP DP  RH WIND       PRES   REMARKS
TUCSON         CLEAR     79  30  16 SE16      30.19R
6HR MIN TEMP:  75; 6HR MAX TEMP:  93;

DAVIS-MONTHAN  CLEAR     78  27  15 SE10      30.17R
NOGALES        CLEAR     70  33  25 E7        30.25S
6HR MIN TEMP:  70; 6HR MAX TEMP:  87;

SIERRA VISTA   PTCLDY    67  29  24 SE10      30.34S
6HR MIN TEMP:  67; 6HR MAX TEMP:  82;

DOUGLAS        CLEAR     66  31  27 E7        30.32F
6HR MIN TEMP:  66; 6HR MAX TEMP:  81;

SAFFORD        CLEAR     63  25  23 E7        30.31R
6HR MIN TEMP:  63; 6HR MAX TEMP:  85;

$$

AZZ532-160700-
SOUTHWEST ARIZONA

CITY           SKY/WX    TMP DP  RH WIND       PRES   REMARKS
YUMA           CLEAR     73  24  16 N5        30.05S
6HR MIN TEMP:  73; 6HR MAX TEMP:  91;

$$

CAZ041-043-047-048-061-525>527-560>570-160700-
SOUTHERN CALIFORNIA

CITY           SKY/WX    TMP DP  RH WIND       PRES   REMARKS
DOWNTOWN L.A.  CLEAR     70  49  47 CALM      30.07S
6HR MIN TEMP:  70; 6HR MAX TEMP:  87;

L.A. AIRPORT   CLEAR     70  54  56 VRB3      30.07S
6HR MIN TEMP:  70; 6HR MAX TEMP:  78;

SAN DIEGO      PTCLDY    72  51  47 CALM      30.07F
6HR MIN TEMP:  72; 6HR MAX TEMP:  78;

BURBANK        CLEAR     69  31  24 CALM      30.09S
6HR MIN TEMP:  69; 6HR MAX TEMP:  93;

ONTARIO        PTCLDY    71  31  22 NW6       30.11S
6HR MIN TEMP:  70; 6HR MAX TEMP:  94;

RIVERSIDE      CLEAR     72  25  17 NE6       30.11S
6HR MIN TEMP:  70; 6HR MAX TEMP:  94;

PALM SPRINGS   CLEAR     78  14   9 W6        30.11S
6HR MIN TEMP:  78; 6HR MAX TEMP:  94;

EL CENTRO NAS  CLEAR     68  14  12 W9        30.07S
6HR MIN TEMP:  67; 6HR MAX TEMP:  93;

IMPERIAL       CLEAR     68  29  23 W5        30.05S
6HR MIN TEMP:  67; 6HR MAX TEMP:  91;

BLYTHE         CLEAR     72   9   8 NW6       30.08S
6HR MIN TEMP:  70; 6HR MAX TEMP:  91;

NEEDLES        CLEAR     68   8   9 NW7       30.14S
6HR MIN TEMP:  68; 6HR MAX TEMP:  87;

$$

NVZ020-UTZ003-160700-
SOUTHERN NEVADA-UTAH

CITY           SKY/WX    TMP DP  RH WIND       PRES   REMARKS
LAS VEGAS      CLEAR     62  14  15 SW5       30.24S
6HR MIN TEMP:  62; 6HR MAX TEMP:  79;

SALT LAKE CITY PTCLDY    42  29  59 SE7       30.41F
6HR MIN TEMP:  42; 6HR MAX TEMP:  55;

$$

NMZ009-TXZ055-160700-
NEW MEXICO-WEST TEXAS

CITY           SKY/WX    TMP DP  RH WIND       PRES   REMARKS
ALBUQUERQUE    CLOUDY    51  29  42 NW3       30.47S
6HR MIN TEMP:  51; 6HR MAX TEMP:  64;

EL PASO        PTCLDY    60  33  36 CALM      30.43S
6HR MIN TEMP:  58; 6HR MAX TEMP:  70;

$$


........................KEY........................
SKY/WX - SKY CONDITION/WEATHER
TMP    - TEMPERATURE IN FAHRENHEIT
DP     - DEW POINT IN FAHRENHEIT
RH     - RELATIVE HUMIDITY IN PERCENT
WIND   - DIRECTION AND SPEED IN MILES PER HOUR (MPH)
VRB    - VARIABLE WIND DIRECTION
PRES   - MEAN SEA LEVEL PRESSURE IN INCHES OF MERCURY
         F - FALLING PRESSURE   R - RISING PRESSURE
         S - STEADY PRESSURE
VSB    - VISIBILITY IN MILES
HX     - HEAT INDEX IN FAHRENHEIT
WCI    - WIND CHILL INDEX IN FAHRENHEIT
TC     - TEMPERATURE IN CELSIUS WHICH IS ALSO KNOWN AS
         TEMPERATURE IN CENTIGRADE
AFB    - AIR FORCE BASE
         LUKE AFB IS LUKE AIR FORCE BASE
         DAVIS-MONTHAN IS DAVIS-MONTHAN AIR FORCE BASE
NAS    - NAVAL AIR STATION
         EL CENTRO NAS IS EL CENTRO NAVAL AIR STATION
N/A    - NOT AVAILABLE





USA.gov is the U.S. government's official web portal to all federal, state and local government web resources and services.